Bennington, VT

5:40 AM EDT on March 26, 2017 (GMT -0400)
Morse State

Weather History for KDDH - May, 2012

Change the Weather History Date:

Friday, May 18, 2012

  Actual Average Record
Temperature  
Mean Temperature 53 °F 56 °F  
Max Temperature 71 °F 68 °F 81 °F (2015)
Min Temperature 35 °F 44 °F 32 °F (2014)
Degree Days  
Heating Degree Days 12 10  
Month to date heating degree days 162 214  
Since 1 July heating degree days 5062 7037  
Cooling Degree Days 0 0  
Month to date cooling degree days 1 0  
Year to date cooling degree days 7 3  
Growing Degree Days 4 (Base 50)    
Moisture  
Dew Point 40 °F    
Average Humidity 61    
Maximum Humidity 92    
Minimum Humidity 29    
Precipitation  
Precipitation 0.00 in 0.12 in 0.88 in (2002)
Month to date precipitation 4.65 1.90  
Year to date precipitation 10.91 13.31  
Sea Level Pressure  
Sea Level Pressure 30.20 in    
Wind  
Wind Speed 2 mph (WSW)    
Max Wind Speed 9 mph    
Max Gust Speed 26 mph    
Visibility 9 miles    
Events      
T = Trace of Precipitation, MM = Missing Value Source: NWS Daily Summary

Daily Weather History Graph

Daily Weather History Graph

Search for Another Location

Airport or City:

Trip Planner

Search our weather history database for the weather conditions in past years. The results will help you decide how hot, cold, wet, or windy it might be!

Date:

Astronomy

May. 18, 2012 Rise Set
Actual Time 5:26 AM EDT 8:12 PM EDT
Civil Twilight 4:53 AM EDT 8:45 PM EDT
Nautical Twilight 4:12 AM EDT 9:27 PM EDT
Astronomical Twilight 3:24 AM EDT 10:15 PM EDT
Moon 3:56 AM EDT (5/18) 6:17 PM EDT (5/18)
Length of Visible Light 15h 52m
Length of Day
14h 46m
Waning Crescent, 5% of the Moon is Illuminated
May 18
Waning Crescent
May 20
New
May 28
First Quarter
Jun 4
Full
Jun 11
Last Quarter

Hourly Weather History & Observations

Time (EDT) Temp. Windchill Dew Point Humidity Pressure Visibility Wind Dir Wind Speed Gust Speed Precip Events Conditions
12:54 AM 42.1 °F - 39.0 °F 89% 30.19 in 10.0 mi Calm Calm - N/A   Clear
1:54 AM 41.0 °F 39.0 °F 37.0 °F 86% 30.19 in 10.0 mi SE 3.5 mph - N/A   Clear
2:54 AM 39.0 °F - 37.0 °F 93% 30.19 in 10.0 mi Calm Calm - N/A   Clear
3:54 AM 37.0 °F - 35.1 °F 93% 30.21 in 10.0 mi Calm Calm - N/A   Clear
4:54 AM 37.0 °F - 36.0 °F 96% 30.22 in 10.0 mi Calm Calm - N/A   Clear
5:54 AM 37.0 °F - 35.1 °F 93% 30.23 in 9.0 mi Calm Calm - N/A   Clear
6:01 AM 37.4 °F - 35.6 °F 93% 30.22 in 1.8 mi Calm Calm - N/A   Clear
6:08 AM 37.4 °F - 35.6 °F 93% 30.22 in 3.0 mi Calm Calm - N/A   Clear
6:54 AM 42.1 °F - 39.9 °F 92% 30.24 in 10.0 mi Calm Calm - N/A   Clear
7:54 AM 51.1 °F - 43.0 °F 74% 30.24 in 10.0 mi Calm Calm - N/A   Clear
8:54 AM 55.9 °F - 42.1 °F 60% 30.24 in 10.0 mi Variable 3.5 mph - N/A   Clear
9:54 AM 60.1 °F - 39.9 °F 47% 30.24 in 10.0 mi Calm Calm - N/A   Clear
10:54 AM 64.0 °F - 39.0 °F 40% 30.24 in 10.0 mi Calm Calm - N/A   Clear
11:54 AM 66.0 °F - 34.0 °F 30% 30.23 in 10.0 mi Calm Calm - N/A   Clear
12:54 PM 68.0 °F - 37.0 °F 32% 30.21 in 10.0 mi West 3.5 mph - N/A   Clear
1:54 PM 68.0 °F - 39.9 °F 36% 30.19 in 10.0 mi North - - N/A   Clear
2:54 PM 70.0 °F - 43.0 °F 38% 30.18 in - North - - N/A   Clear
3:54 PM 70.0 °F - 44.1 °F 39% 30.17 in 10.0 mi Variable 4.6 mph - N/A   Clear
4:54 PM 70.0 °F - 44.1 °F 39% 30.16 in 10.0 mi NW 6.9 mph - N/A   Clear
5:54 PM 69.1 °F - 42.1 °F 38% 30.16 in 10.0 mi West 4.6 mph - N/A   Clear
6:54 PM 68.0 °F - 39.9 °F 36% 30.15 in 10.0 mi WNW 3.5 mph - N/A   Clear
7:54 PM 61.0 °F - 44.1 °F 54% 30.15 in 10.0 mi Calm Calm - N/A   Clear
8:54 PM 57.0 °F - 44.1 °F 62% 30.15 in 10.0 mi South 3.5 mph - N/A   Clear
9:54 PM 50.0 °F - 46.0 °F 86% 30.16 in 10.0 mi South 4.6 mph - N/A   Clear
10:54 PM 50.0 °F - 43.0 °F 77% 30.16 in 10.0 mi Calm Calm - N/A   Clear
11:54 PM 48.9 °F - 44.1 °F 83% 30.17 in 10.0 mi Calm Calm - N/A   Clear